TimeMST,TemperatureF,Dew PointF,Humidity,Sea Level PressureIn,VisibilityMPH,Wind Direction,Wind SpeedMPH,Gust SpeedMPH,PrecipitationIn,Events,Conditions,WindDirDegrees,DateUTC
12:53 AM,17.1,-0.0,47,30.16,10.0,SW,5.8,-,N/A,,Clear,230,2013-01-06 07:53:00
1:53 AM,16.0,5.0,62,30.14,10.0,Calm,Calm,-,N/A,,Clear,0,2013-01-06 08:53:00
2:53 AM,14.0,-0.0,54,30.12,10.0,SW,5.8,-,N/A,,Clear,230,2013-01-06 09:53:00
3:53 AM,19.9,1.9,46,30.09,10.0,Calm,Calm,-,N/A,,Clear,0,2013-01-06 10:53:00
5:53 AM,30.0,3.0,32,30.04,10.0,WSW,5.8,-,N/A,,Clear,250,2013-01-06 12:53:00
6:53 AM,32.0,3.9,31,30.01,10.0,Variable,4.6,-,N/A,,Clear,0,2013-01-06 13:53:00
7:53 AM,30.9,6.1,35,29.99,10.0,Calm,Calm,-,N/A,,Clear,0,2013-01-06 14:53:00
9:53 AM,33.1,10.0,38,29.96,10.0,Calm,Calm,-,N/A,,Clear,0,2013-01-06 16:53:00
10:53 AM,39.9,15.1,36,29.92,10.0,WNW,4.6,-,N/A,,Clear,300,2013-01-06 17:53:00
11:53 AM,35.1,17.1,48,29.91,10.0,Calm,Calm,-,N/A,,Clear,0,2013-01-06 18:53:00
12:53 PM,37.9,18.0,45,29.90,10.0,NNW,4.6,-,N/A,,Clear,330,2013-01-06 19:53:00
1:53 PM,48.0,10.9,22,29.86,10.0,WNW,4.6,-,N/A,,Clear,300,2013-01-06 20:53:00
2:53 PM,45.0,12.0,26,29.89,10.0,NNW,8.1,-,N/A,,Clear,330,2013-01-06 21:53:00
3:53 PM,39.0,18.0,43,29.91,10.0,West,8.1,-,N/A,,Partly Cloudy,280,2013-01-06 22:53:00
4:53 PM,36.0,14.0,41,29.91,10.0,WSW,8.1,-,N/A,,Clear,240,2013-01-06 23:53:00
5:53 PM,37.0,12.0,36,29.89,10.0,West,3.5,-,N/A,,Mostly Cloudy,260,2013-01-07 00:53:00
6:53 PM,32.0,12.0,44,29.91,10.0,SW,3.5,-,N/A,,Partly Cloudy,220,2013-01-07 01:53:00
7:53 PM,35.1,8.1,33,29.91,10.0,SW,3.5,-,N/A,,Mostly Cloudy,220,2013-01-07 02:53:00
8:53 PM,36.0,6.1,29,29.86,10.0,Calm,Calm,-,N/A,,Partly Cloudy,0,2013-01-07 03:53:00
9:53 PM,30.9,12.0,46,29.92,10.0,SSW,3.5,-,N/A,,Overcast,210,2013-01-07 04:53:00
10:53 PM,35.1,10.0,35,29.90,10.0,Calm,Calm,-,N/A,,Overcast,0,2013-01-07 05:53:00
11:53 PM,26.1,10.9,53,29.95,10.0,WSW,9.2,-,N/A,,Partly Cloudy,240,2013-01-07 06:53:00